Year,Month,Day,Hour,Minute,Value (Times are PST for temperature in C)
2008,10,13,00,00,10.20
2008,10,13,00,01,10.20
2008,10,13,00,02,10.20
2008,10,13,00,03,10.20
2008,10,13,00,04,10.20
2008,10,13,00,05,10.20
2008,10,13,00,06,10.20
2008,10,13,00,07,10.20
2008,10,13,00,08,10.20
2008,10,13,00,09,10.20
2008,10,13,00,10,10.10
2008,10,13,00,11,10.10
2008,10,13,00,12,10.10
2008,10,13,00,13,10.10
2008,10,13,00,14,10.10
2008,10,13,00,15,10.10
2008,10,13,00,16,10.10
2008,10,13,00,17,10.10
2008,10,13,00,18,10.10
2008,10,13,00,19,10.10
2008,10,13,00,20,10.10
2008,10,13,00,21,10.10
2008,10,13,00,22,10.10
2008,10,13,00,23,10.10
2008,10,13,00,24,10.10
2008,10,13,00,25,10.10
2008,10,13,00,26,10.10
2008,10,13,00,27,10.00
2008,10,13,00,28,10.00
2008,10,13,00,29,10.00
2008,10,13,00,30,10.00
2008,10,13,00,31,10.00
2008,10,13,00,32,10.00
2008,10,13,00,33,10.00
2008,10,13,00,34,10.00
2008,10,13,00,35,10.00
2008,10,13,00,36,9.90
2008,10,13,00,37,9.90
2008,10,13,00,38,9.90
2008,10,13,00,39,9.90
2008,10,13,00,40,9.90
2008,10,13,00,41,9.90
2008,10,13,00,42,9.90
2008,10,13,00,43,9.90
2008,10,13,00,44,9.90
2008,10,13,00,45,9.90
2008,10,13,00,46,9.90
2008,10,13,00,47,9.90
2008,10,13,00,48,9.90
2008,10,13,00,49,9.90
2008,10,13,00,50,9.90
2008,10,13,00,51,9.90
2008,10,13,00,52,9.90
2008,10,13,00,53,9.90
2008,10,13,00,54,9.90
2008,10,13,00,55,9.90
2008,10,13,00,56,9.90
2008,10,13,00,57,9.90
2008,10,13,00,58,9.90
2008,10,13,00,59,9.90
2008,10,13,01,00,9.90
2008,10,13,01,01,9.80
2008,10,13,01,02,9.80
2008,10,13,01,03,9.80
2008,10,13,01,04,9.80
2008,10,13,01,05,9.80
2008,10,13,01,06,9.80
2008,10,13,01,07,9.80
2008,10,13,01,08,9.80
2008,10,13,01,09,9.80
2008,10,13,01,10,9.80
2008,10,13,01,11,9.80
2008,10,13,01,12,9.80
2008,10,13,08,02,9.60
2008,10,13,08,03,9.60
2008,10,13,08,04,9.60
2008,10,13,08,05,9.60
2008,10,13,08,06,9.60
2008,10,13,08,07,9.60
2008,10,13,08,08,9.60
2008,10,13,08,09,9.60
2008,10,13,08,10,9.60
2008,10,13,08,11,9.60
2008,10,13,08,12,9.60
2008,10,13,08,13,9.60
2008,10,13,08,14,9.70
2008,10,13,08,15,9.60
2008,10,13,08,16,9.70
2008,10,13,08,17,9.60
2008,10,13,08,18,9.70
2008,10,13,08,19,9.70
2008,10,13,08,20,9.70
2008,10,13,08,21,9.70
2008,10,13,08,22,9.70
2008,10,13,08,23,9.70
2008,10,13,08,24,9.70
2008,10,13,08,25,9.70
2008,10,13,08,26,9.70
2008,10,13,08,27,9.70
2008,10,13,08,28,9.70
2008,10,13,08,29,9.70
2008,10,13,08,30,9.70
2008,10,13,08,31,9.70
2008,10,13,08,32,9.70
2008,10,13,08,33,9.70
2008,10,13,08,34,9.70
2008,10,13,08,35,9.70
2008,10,13,08,36,9.70
2008,10,13,08,37,9.70
2008,10,13,08,38,9.70
2008,10,13,08,39,9.80
2008,10,13,08,40,9.80
2008,10,13,08,41,9.80
2008,10,13,08,42,9.80
2008,10,13,08,43,9.80
2008,10,13,08,44,9.80
2008,10,13,08,45,9.80
2008,10,13,08,46,9.80
2008,10,13,08,47,9.80
2008,10,13,08,48,9.80
2008,10,13,08,49,9.80
2008,10,13,08,50,9.80
2008,10,13,08,51,9.90
2008,10,13,08,52,9.90
2008,10,13,08,53,9.90
2008,10,13,08,54,9.90
2008,10,13,08,55,9.90
2008,10,13,08,56,9.90
2008,10,13,08,57,9.90
2008,10,13,08,58,9.90
2008,10,13,08,59,9.90
2008,10,13,09,00,10.00
2008,10,13,09,01,10.00
2008,10,13,09,02,10.00
2008,10,13,09,03,10.00
2008,10,13,09,04,10.00
2008,10,13,09,05,10.00
2008,10,13,09,06,10.10
2008,10,13,09,07,10.10
2008,10,13,09,08,10.10
2008,10,13,09,09,10.10
2008,10,13,09,10,10.10
2008,10,13,09,11,10.10
2008,10,13,09,12,10.10
2008,10,13,09,13,10.10
2008,10,13,09,14,10.10
2008,10,13,09,15,10.10
2008,10,13,09,16,10.20
2008,10,13,09,17,10.20
2008,10,13,09,18,10.20
2008,10,13,09,19,10.20
2008,10,13,09,20,10.20
2008,10,13,09,21,10.20
2008,10,13,09,22,10.20
2008,10,13,09,23,10.20
2008,10,13,09,24,10.20
2008,10,13,09,25,10.20
2008,10,13,09,26,10.30
2008,10,13,09,27,10.30
2008,10,13,09,28,10.30
2008,10,13,09,29,10.30
2008,10,13,09,30,10.30
2008,10,13,09,31,10.30
2008,10,13,09,32,10.30
2008,10,13,09,33,10.30
2008,10,13,09,34,10.30
2008,10,13,09,35,10.30
2008,10,13,09,36,10.40
2008,10,13,09,37,10.40
2008,10,13,09,38,10.40
2008,10,13,09,39,10.40
2008,10,13,09,40,10.40
2008,10,13,09,41,10.40
2008,10,13,09,42,10.40
2008,10,13,09,43,10.40
2008,10,13,09,44,10.40
2008,10,13,09,45,10.40
2008,10,13,09,46,10.50
2008,10,13,09,47,10.50
2008,10,13,09,48,10.50
2008,10,13,09,49,10.50
2008,10,13,09,50,10.50
2008,10,13,09,51,10.50
2008,10,13,09,52,10.50
2008,10,13,09,53,10.60
2008,10,13,09,54,10.60
2008,10,13,09,55,10.60
2008,10,13,09,56,10.60
2008,10,13,09,57,10.60
2008,10,13,09,58,10.60
2008,10,13,09,59,10.60
2008,10,13,10,00,10.60
2008,10,13,10,01,10.70
2008,10,13,10,02,10.70
2008,10,13,10,03,10.70
2008,10,13,10,04,10.70
2008,10,13,10,05,10.70
2008,10,13,10,06,10.70
2008,10,13,10,07,10.70
2008,10,13,10,08,10.80
2008,10,13,10,09,10.80
2008,10,13,10,10,10.80
2008,10,13,10,11,10.80
2008,10,13,10,12,10.80
2008,10,13,10,13,10.80
2008,10,13,10,14,10.80
2008,10,13,10,15,10.80
2008,10,13,10,16,10.80
2008,10,13,10,17,10.80
2008,10,13,10,18,10.80
2008,10,13,10,19,10.90
2008,10,13,10,20,10.90
2008,10,13,10,21,10.90
2008,10,13,10,22,10.90
2008,10,13,10,23,10.90
2008,10,13,10,24,10.90
2008,10,13,10,25,10.90
2008,10,13,10,26,10.90
2008,10,13,10,27,10.90
2008,10,13,10,28,11.00
2008,10,13,10,29,11.00
2008,10,13,10,30,11.00
2008,10,13,10,31,11.10
2008,10,13,10,32,11.10
2008,10,13,10,33,11.10
2008,10,13,10,34,11.10
2008,10,13,10,35,11.10
2008,10,13,10,36,11.20
2008,10,13,10,37,11.20
2008,10,13,10,38,11.20
2008,10,13,10,39,11.30
2008,10,13,10,40,11.30
2008,10,13,10,41,11.30
2008,10,13,10,42,11.30
2008,10,13,10,43,11.40
2008,10,13,10,44,11.40
2008,10,13,10,45,11.40
2008,10,13,10,46,11.50
2008,10,13,10,47,11.50
2008,10,13,10,48,11.60
2008,10,13,10,49,11.60
2008,10,13,10,50,11.60
2008,10,13,10,51,11.60
2008,10,13,10,52,11.70
2008,10,13,10,53,11.70
2008,10,13,10,54,11.70
2008,10,13,10,55,11.70
2008,10,13,10,56,11.70
2008,10,13,10,57,11.70
2008,10,13,10,58,11.70
2008,10,13,10,59,11.80
2008,10,13,11,00,11.80
2008,10,13,11,01,11.80
2008,10,13,11,02,11.80
2008,10,13,11,03,11.80
2008,10,13,11,04,11.80
2008,10,13,11,05,11.80
2008,10,13,11,06,11.80
2008,10,13,11,07,11.80
2008,10,13,11,08,11.80
2008,10,13,11,09,11.80
2008,10,13,11,10,11.80
2008,10,13,11,11,11.80
2008,10,13,11,12,11.80
2008,10,13,11,13,11.80
2008,10,13,11,14,11.80
2008,10,13,11,15,11.80
2008,10,13,11,16,11.80
2008,10,13,11,17,11.80
2008,10,13,11,18,11.80
2008,10,13,11,19,11.80
2008,10,13,11,20,11.80
2008,10,13,11,21,11.80
2008,10,13,11,22,11.80
2008,10,13,11,23,11.80
2008,10,13,11,24,11.80
2008,10,13,11,25,11.80
2008,10,13,11,26,11.80
2008,10,13,11,27,11.80
2008,10,13,11,28,11.80
2008,10,13,11,29,11.80
2008,10,13,11,30,11.80
2008,10,13,11,31,11.80
2008,10,13,11,32,11.90
2008,10,13,11,33,11.90
2008,10,13,11,34,11.90
2008,10,13,11,35,11.90
2008,10,13,11,36,11.90
2008,10,13,11,37,12.00
2008,10,13,11,38,12.00
2008,10,13,11,39,12.10
2008,10,13,11,40,12.10
2008,10,13,11,41,12.10
2008,10,13,11,42,12.10
2008,10,13,11,43,12.20
2008,10,13,11,44,12.20
2008,10,13,11,45,12.20
2008,10,13,11,46,12.20
2008,10,13,11,47,12.30
2008,10,13,11,48,12.30
2008,10,13,11,49,12.30
2008,10,13,11,50,12.30
2008,10,13,11,51,12.40
2008,10,13,11,52,12.40
2008,10,13,11,53,12.40
2008,10,13,11,54,12.50
2008,10,13,11,55,12.50
2008,10,13,11,56,12.60
2008,10,13,11,57,12.60
2008,10,13,11,58,12.60
2008,10,13,11,59,12.60
2008,10,13,12,00,12.70
2008,10,13,12,01,12.70
2008,10,13,12,02,12.80
2008,10,13,12,03,12.80
2008,10,13,12,04,12.80
2008,10,13,12,05,12.80
2008,10,13,12,06,12.80
2008,10,13,12,07,12.80
2008,10,13,12,08,12.80
2008,10,13,12,09,12.80
2008,10,13,12,10,12.80
2008,10,13,12,11,12.90
2008,10,13,12,12,12.90
2008,10,13,12,13,12.90
2008,10,13,12,14,12.90
2008,10,13,12,15,12.90
2008,10,13,12,16,13.00
2008,10,13,12,17,13.00
2008,10,13,12,18,13.00
2008,10,13,12,19,13.10
2008,10,13,12,20,13.10
2008,10,13,12,21,13.10
2008,10,13,12,22,13.10
2008,10,13,12,23,13.10
2008,10,13,12,24,13.10
2008,10,13,12,25,13.10
2008,10,13,12,26,13.10
2008,10,13,12,27,13.20
2008,10,13,12,28,13.20
2008,10,13,12,29,13.20
2008,10,13,12,30,13.20
2008,10,13,12,31,13.20
2008,10,13,12,32,13.20
2008,10,13,12,33,13.20
2008,10,13,12,34,13.20
2008,10,13,12,35,13.20
2008,10,13,12,36,13.20
2008,10,13,12,37,13.20
2008,10,13,12,38,13.20
2008,10,13,12,39,13.20
2008,10,13,12,40,13.20
2008,10,13,12,41,13.20
2008,10,13,12,42,13.20
2008,10,13,12,43,13.20
2008,10,13,12,44,13.20
2008,10,13,12,45,13.20
2008,10,13,12,46,13.20
2008,10,13,12,47,13.20
2008,10,13,12,48,13.10
2008,10,13,12,49,13.20
2008,10,13,12,50,13.20
2008,10,13,12,51,13.10
2008,10,13,12,52,13.10
2008,10,13,12,53,13.10
2008,10,13,12,54,13.10
2008,10,13,12,55,13.10
2008,10,13,12,56,13.10
2008,10,13,12,57,13.10
2008,10,13,12,58,13.10
2008,10,13,12,59,13.10
2008,10,13,13,00,13.10
2008,10,13,13,01,13.00
2008,10,13,13,02,13.00
2008,10,13,13,03,13.00
2008,10,13,13,04,13.00
2008,10,13,13,05,13.00
2008,10,13,13,06,13.00
2008,10,13,13,07,12.90
2008,10,13,13,08,12.90
2008,10,13,13,09,12.90
2008,10,13,13,10,12.90
2008,10,13,13,11,12.90
2008,10,13,13,12,12.90
2008,10,13,13,13,12.90
2008,10,13,13,14,12.90
2008,10,13,13,15,12.90
2008,10,13,13,16,12.90
2008,10,13,13,17,12.80
2008,10,13,13,18,12.80
2008,10,13,13,19,12.80
2008,10,13,13,20,12.80
2008,10,13,13,21,12.80
2008,10,13,13,22,12.80
2008,10,13,13,23,12.80
2008,10,13,13,24,12.80
2008,10,13,13,25,12.80
2008,10,13,13,26,12.80
2008,10,13,13,27,12.70
2008,10,13,13,28,12.80
2008,10,13,13,29,12.70
2008,10,13,13,30,12.70
2008,10,13,13,31,12.80
2008,10,13,13,32,12.70
2008,10,13,13,33,12.70
2008,10,13,13,34,12.70
2008,10,13,13,35,12.70
2008,10,13,13,36,12.70
2008,10,13,13,37,12.70
2008,10,13,13,38,12.70
2008,10,13,13,39,12.70
2008,10,13,13,40,12.70
2008,10,13,13,41,12.70
2008,10,13,13,42,12.70
2008,10,13,13,43,12.70
2008,10,13,13,44,12.70
2008,10,13,13,45,12.70
2008,10,13,13,46,12.70
2008,10,13,13,47,12.70
2008,10,13,13,48,12.70
2008,10,13,13,49,12.70
2008,10,13,13,50,12.70
2008,10,13,13,51,12.70
2008,10,13,13,52,12.70
2008,10,13,13,53,12.70
2008,10,13,13,54,12.70
2008,10,13,13,55,12.70
2008,10,13,13,56,12.70
2008,10,13,13,57,12.70
2008,10,13,13,58,12.70
2008,10,13,13,59,12.70
2008,10,13,14,00,12.70
2008,10,13,14,01,12.70
2008,10,13,14,02,12.70
2008,10,13,14,03,12.70
2008,10,13,14,04,12.70
2008,10,13,14,05,12.70
2008,10,13,14,06,12.70
2008,10,13,14,07,12.70
2008,10,13,14,08,12.60
2008,10,13,14,09,12.60
2008,10,13,14,10,12.60
2008,10,13,14,11,12.60
2008,10,13,14,12,12.50
2008,10,13,14,13,12.50
2008,10,13,14,14,12.50
2008,10,13,14,15,12.40
2008,10,13,14,16,12.40
2008,10,13,14,17,12.40
2008,10,13,14,18,12.30
2008,10,13,14,19,12.30
2008,10,13,14,20,12.30
2008,10,13,14,21,12.30
2008,10,13,14,22,12.30
2008,10,13,14,23,12.30
2008,10,13,14,24,12.20
2008,10,13,14,25,12.20
2008,10,13,14,26,12.20
2008,10,13,14,27,12.20
2008,10,13,14,28,12.20
2008,10,13,14,29,12.20
2008,10,13,14,30,12.20
2008,10,13,14,31,12.20
2008,10,13,14,32,12.10
2008,10,13,14,33,12.10
2008,10,13,14,34,12.10
2008,10,13,14,35,12.10
2008,10,13,14,36,12.10
2008,10,13,14,37,12.10
2008,10,13,14,38,12.10
2008,10,13,14,39,12.10
2008,10,13,14,40,12.00
2008,10,13,14,41,12.00
2008,10,13,14,42,12.00
2008,10,13,14,43,11.90
2008,10,13,14,44,11.90
2008,10,13,14,45,11.90
2008,10,13,14,46,11.80
2008,10,13,14,47,11.80
2008,10,13,14,48,11.80
2008,10,13,14,49,11.80
2008,10,13,14,50,11.80
2008,10,13,14,51,11.70
2008,10,13,14,52,11.70
2008,10,13,14,53,11.70
2008,10,13,14,54,11.70
2008,10,13,14,55,11.60
2008,10,13,14,56,11.60
2008,10,13,14,57,11.60
2008,10,13,14,58,11.50
2008,10,13,14,59,11.50
2008,10,13,15,00,11.50
2008,10,13,15,01,11.40
2008,10,13,15,02,11.40
2008,10,13,15,03,11.40
2008,10,13,15,04,11.40
2008,10,13,15,05,11.40
2008,10,13,15,06,11.40
2008,10,13,15,07,11.40
2008,10,13,15,08,11.40
2008,10,13,15,09,11.40
2008,10,13,15,10,11.40
2008,10,13,15,11,11.40
2008,10,13,15,12,11.40
2008,10,13,15,13,11.40
2008,10,13,15,14,11.40
2008,10,13,15,15,11.40
2008,10,13,15,16,11.40
2008,10,13,15,17,11.40
2008,10,13,15,18,11.40
2008,10,13,15,19,11.40
2008,10,13,15,20,11.40
2008,10,13,15,21,11.40
2008,10,13,15,22,11.40
2008,10,13,15,23,11.40
2008,10,13,15,24,11.40
2008,10,13,15,25,11.40
2008,10,13,15,26,11.40
2008,10,13,15,27,11.40
2008,10,13,15,28,11.40
2008,10,13,15,29,11.40
2008,10,13,15,30,11.40
2008,10,13,15,31,11.40
2008,10,13,15,32,11.40
2008,10,13,15,33,11.40
2008,10,13,15,34,11.40
2008,10,13,15,35,11.40
2008,10,13,15,36,11.40
2008,10,13,15,37,11.40
2008,10,13,15,38,11.50
2008,10,13,15,39,11.50
2008,10,13,15,40,11.50
2008,10,13,15,41,11.50
2008,10,13,15,42,11.50
2008,10,13,15,43,11.50
2008,10,13,15,44,11.50
2008,10,13,15,45,11.60
2008,10,13,15,46,11.60
2008,10,13,15,47,11.60
2008,10,13,15,48,11.60
2008,10,13,15,49,11.60
2008,10,13,15,50,11.60
2008,10,13,15,51,11.60
2008,10,13,15,52,11.60
2008,10,13,15,53,11.60
2008,10,13,15,54,11.60
2008,10,13,15,55,11.60
2008,10,13,15,56,11.60
2008,10,13,15,57,11.60
2008,10,13,15,58,11.60
2008,10,13,15,59,11.60
2008,10,13,16,00,11.60
2008,10,13,16,01,11.60
2008,10,13,16,02,11.60
2008,10,13,16,03,11.60
2008,10,13,16,04,11.60
2008,10,13,16,05,11.60
2008,10,13,16,06,11.60
2008,10,13,16,07,11.70
2008,10,13,16,08,11.70
2008,10,13,16,09,11.60
2008,10,13,16,10,11.60
2008,10,13,16,11,11.60
2008,10,13,16,12,11.60
2008,10,13,16,13,11.60
2008,10,13,16,14,11.60
2008,10,13,16,15,11.60
2008,10,13,16,16,11.60
2008,10,13,16,17,11.60
2008,10,13,16,18,11.60
2008,10,13,16,19,11.60
2008,10,13,16,20,11.60
2008,10,13,16,21,11.60
2008,10,13,16,22,11.60
2008,10,13,16,23,11.60
2008,10,13,16,24,11.60
2008,10,13,16,25,11.60
2008,10,13,16,26,11.60
2008,10,13,16,27,11.60
2008,10,13,16,28,11.60
2008,10,13,16,29,11.60
2008,10,13,16,30,11.60
2008,10,13,16,31,11.60
2008,10,13,16,32,11.60
2008,10,13,16,33,11.60
2008,10,13,16,34,11.60
2008,10,13,16,35,11.50
2008,10,13,16,36,11.50
2008,10,13,16,37,11.50
2008,10,13,16,38,11.50
2008,10,13,16,39,11.50
2008,10,13,16,40,11.50
2008,10,13,16,41,11.50
2008,10,13,16,42,11.40
2008,10,13,16,43,11.40
2008,10,13,16,44,11.40
2008,10,13,16,45,11.40
2008,10,13,16,46,11.40
2008,10,13,16,47,11.40
2008,10,13,16,48,11.40
2008,10,13,16,49,11.40
2008,10,13,16,50,11.40
2008,10,13,16,51,11.40
2008,10,13,16,52,11.40
2008,10,13,16,53,11.40
2008,10,13,16,54,11.40
2008,10,13,16,55,11.30
2008,10,13,16,56,11.30
2008,10,13,16,57,11.30
2008,10,13,16,58,11.30
2008,10,13,16,59,11.30
2008,10,13,17,00,11.30
2008,10,13,17,01,11.30
2008,10,13,17,02,11.30
2008,10,13,17,03,11.30
2008,10,13,17,04,11.30
2008,10,13,17,05,11.30
2008,10,13,17,06,11.30
2008,10,13,17,07,11.20
2008,10,13,17,08,11.20
2008,10,13,17,09,11.20
2008,10,13,17,10,11.20
2008,10,13,17,11,11.20
2008,10,13,17,12,11.20
2008,10,13,17,13,11.20
2008,10,13,17,14,11.20
2008,10,13,17,15,11.20
2008,10,13,17,16,11.20
2008,10,13,17,17,11.20
2008,10,13,17,18,11.20
2008,10,13,17,19,11.20
2008,10,13,17,20,11.10
2008,10,13,17,21,11.10
2008,10,13,17,22,11.10
2008,10,13,17,23,11.10
2008,10,13,17,24,11.10
2008,10,13,17,25,11.10
2008,10,13,17,26,11.10
2008,10,13,17,27,11.10
2008,10,13,17,28,11.10
2008,10,13,17,29,11.10
2008,10,13,17,30,11.00
2008,10,13,17,31,11.00
2008,10,13,17,32,11.00
2008,10,13,17,33,11.00
2008,10,13,17,34,11.00
2008,10,13,17,35,11.00
2008,10,13,17,36,11.00
2008,10,13,17,37,10.90
2008,10,13,17,38,10.90
2008,10,13,17,39,10.90
2008,10,13,17,40,10.90
2008,10,13,17,41,10.90
2008,10,13,17,42,10.90
2008,10,13,17,43,10.90
2008,10,13,17,44,10.90
2008,10,13,17,45,10.90
2008,10,13,17,46,10.90
2008,10,13,17,47,10.80
2008,10,13,17,48,10.80
2008,10,13,17,49,10.80
2008,10,13,17,50,10.80
2008,10,13,17,51,10.80
2008,10,13,17,52,10.80
2008,10,13,17,53,10.80
2008,10,13,17,54,10.80
2008,10,13,17,55,10.70
2008,10,13,17,56,10.70
2008,10,13,17,57,10.70
2008,10,13,17,58,10.70
2008,10,13,17,59,10.70
2008,10,13,18,00,10.70
2008,10,13,18,01,10.70
2008,10,13,18,02,10.60
2008,10,13,18,03,10.60
2008,10,13,18,04,10.60
2008,10,13,18,05,10.60
2008,10,13,18,06,10.60
2008,10,13,18,07,10.50
2008,10,13,18,08,10.50
2008,10,13,18,09,10.50
2008,10,13,18,10,10.40
2008,10,13,18,11,10.40
2008,10,13,18,12,10.40
2008,10,13,18,13,10.40
2008,10,13,18,14,10.40
2008,10,13,18,15,10.40
2008,10,13,18,16,10.40
2008,10,13,18,17,10.40
2008,10,13,18,18,10.30
2008,10,13,18,19,10.30
2008,10,13,18,20,10.30
2008,10,13,18,21,10.30
2008,10,13,18,22,10.30
2008,10,13,18,23,10.30
2008,10,13,18,24,10.30
2008,10,13,18,25,10.30
2008,10,13,18,26,10.30
2008,10,13,18,27,10.20
2008,10,13,18,28,10.20
2008,10,13,18,29,10.20
2008,10,13,18,30,10.20
2008,10,13,18,31,10.20
2008,10,13,18,32,10.20
2008,10,13,18,33,10.20
2008,10,13,18,34,10.20
2008,10,13,18,35,10.20
2008,10,13,18,36,10.20
2008,10,13,18,37,10.20
2008,10,13,18,38,10.20
2008,10,13,18,39,10.20
2008,10,13,18,40,10.20
2008,10,13,18,41,10.20
2008,10,13,18,42,10.10
2008,10,13,18,43,10.10
2008,10,13,18,44,10.10
2008,10,13,18,45,10.10
2008,10,13,18,46,10.10
2008,10,13,18,47,10.00
2008,10,13,18,48,10.00
2008,10,13,18,49,10.00
2008,10,13,18,50,10.00
2008,10,13,18,51,9.90
2008,10,13,18,52,9.90
2008,10,13,18,53,9.90
2008,10,13,18,54,9.90
2008,10,13,18,55,9.90
2008,10,13,18,56,9.80
2008,10,13,18,57,9.80
2008,10,13,18,58,9.80
2008,10,13,18,59,9.80
2008,10,13,19,00,9.80
2008,10,13,19,01,9.80
2008,10,13,19,02,9.80
2008,10,13,19,03,9.80
2008,10,13,19,04,9.70
2008,10,13,19,05,9.70
2008,10,13,19,06,9.70
2008,10,13,19,07,9.70
2008,10,13,19,08,9.70
2008,10,13,19,09,9.70
2008,10,13,19,10,9.70
2008,10,13,19,11,9.70
2008,10,13,19,12,9.70
2008,10,13,19,13,9.70
2008,10,13,19,14,9.70
2008,10,13,19,15,9.70
2008,10,13,19,16,9.70
2008,10,13,19,17,9.70
2008,10,13,19,18,9.70
2008,10,13,19,19,9.70
2008,10,13,19,20,9.70
2008,10,13,19,21,9.70
2008,10,13,19,22,9.70
2008,10,13,19,23,9.70
2008,10,13,19,24,9.70
2008,10,13,19,25,9.80
2008,10,13,19,26,9.80
2008,10,13,19,27,9.80
2008,10,13,19,28,9.80
2008,10,13,19,29,9.80
2008,10,13,19,30,9.80
2008,10,13,19,31,9.80
2008,10,13,19,32,9.80
2008,10,13,19,33,9.80
2008,10,13,19,34,9.80
2008,10,13,19,35,9.80
2008,10,13,19,36,9.80
2008,10,13,19,37,9.80
2008,10,13,19,38,9.80
2008,10,13,19,39,9.80
2008,10,13,19,40,9.80
2008,10,13,19,41,9.80
2008,10,13,19,42,9.80
2008,10,13,19,43,9.80
2008,10,13,19,44,9.80
2008,10,13,19,45,9.80
2008,10,13,19,46,9.80
2008,10,13,19,47,9.80
2008,10,13,19,48,9.70
2008,10,13,19,49,9.70
2008,10,13,19,50,9.70
2008,10,13,19,51,9.70
2008,10,13,19,52,9.70
2008,10,13,19,53,9.70
2008,10,13,19,54,9.70
2008,10,13,19,55,9.70
2008,10,13,19,56,9.70
2008,10,13,19,57,9.70
2008,10,13,19,58,9.70
2008,10,13,19,59,9.70
2008,10,13,20,00,9.70
2008,10,13,20,01,9.70
2008,10,13,20,02,9.70
2008,10,13,20,03,9.70
2008,10,13,20,04,9.70
2008,10,13,20,05,9.70
2008,10,13,20,06,9.70
2008,10,13,20,07,9.70
2008,10,13,20,08,9.70
2008,10,13,20,09,9.80
2008,10,13,20,10,9.80
2008,10,13,20,11,9.80
2008,10,13,20,12,9.80
2008,10,13,20,13,9.70
2008,10,13,20,14,9.70
2008,10,13,20,15,9.70
2008,10,13,20,16,9.70
2008,10,13,20,17,9.70
2008,10,13,20,18,9.60
2008,10,13,20,19,9.60
2008,10,13,20,20,9.60
2008,10,13,20,21,9.60
2008,10,13,20,22,9.60
2008,10,13,20,23,9.60
2008,10,13,20,24,9.50
2008,10,13,20,25,9.50
2008,10,13,20,26,9.50
2008,10,13,20,27,9.40
2008,10,13,20,28,9.40
2008,10,13,20,29,9.40
2008,10,13,20,30,9.40
2008,10,13,20,31,9.40
2008,10,13,20,32,9.40
2008,10,13,20,33,9.40
2008,10,13,20,34,9.40
2008,10,13,20,35,9.40
2008,10,13,20,36,9.40
2008,10,13,20,37,9.40
2008,10,13,20,38,9.40
2008,10,13,20,39,9.40
2008,10,13,20,40,9.40
2008,10,13,20,41,9.40
2008,10,13,20,42,9.40
2008,10,13,20,43,9.40
2008,10,13,20,44,9.40
2008,10,13,20,45,9.40
2008,10,13,20,46,9.40
2008,10,13,20,47,9.30
2008,10,13,20,48,9.30
2008,10,13,20,49,9.30
2008,10,13,20,50,9.30
2008,10,13,20,51,9.30
2008,10,13,20,52,9.20
2008,10,13,20,53,9.20
2008,10,13,20,54,9.20
2008,10,13,20,55,9.20
2008,10,13,20,56,9.20
2008,10,13,20,57,9.10
2008,10,13,20,58,9.10
2008,10,13,20,59,9.10
2008,10,13,21,00,9.10
2008,10,13,21,01,9.10
2008,10,13,21,02,9.10
2008,10,13,21,03,9.00
2008,10,13,21,04,9.00
2008,10,13,21,05,9.00
2008,10,13,21,06,9.00
2008,10,13,21,07,9.00
2008,10,13,21,08,9.00
2008,10,13,21,09,9.00
2008,10,13,21,10,8.90
2008,10,13,21,11,8.90
2008,10,13,21,12,8.90
2008,10,13,21,13,8.90
2008,10,13,21,14,8.90
2008,10,13,21,15,8.90
2008,10,13,21,16,8.90
2008,10,13,21,17,8.90
2008,10,13,21,18,8.90
2008,10,13,21,19,8.90
2008,10,13,21,20,8.80
2008,10,13,21,21,8.80
2008,10,13,21,22,8.80
2008,10,13,21,23,8.80
2008,10,13,21,24,8.80
2008,10,13,21,25,8.80
2008,10,13,21,26,8.80
2008,10,13,21,27,8.80
2008,10,13,21,28,8.80
2008,10,13,21,29,8.80
2008,10,13,21,30,8.70
2008,10,13,21,31,8.70
2008,10,13,21,32,8.80
2008,10,13,21,33,8.80
2008,10,13,21,34,8.80
2008,10,13,21,35,8.80
2008,10,13,21,36,8.70
2008,10,13,21,37,8.80
2008,10,13,21,38,8.80
2008,10,13,21,39,8.90
2008,10,13,21,40,8.90
2008,10,13,21,41,9.00
2008,10,13,21,42,9.10
2008,10,13,21,43,9.20
2008,10,13,21,44,9.30
2008,10,13,21,45,9.40
2008,10,13,21,46,9.50
2008,10,13,21,47,9.50
2008,10,13,21,48,9.60
2008,10,13,21,49,9.70
2008,10,13,21,50,9.80
2008,10,13,21,51,9.90
2008,10,13,21,52,10.00
2008,10,13,21,53,10.10
2008,10,13,21,54,10.10
2008,10,13,21,55,10.10
2008,10,13,21,56,10.10
2008,10,13,21,57,10.10
2008,10,13,21,58,10.10
2008,10,13,21,59,10.00
2008,10,13,22,00,10.00
2008,10,13,22,01,9.90
2008,10,13,22,02,9.90
2008,10,13,22,03,9.80
2008,10,13,22,04,9.70
2008,10,13,22,05,9.60
2008,10,13,22,06,9.50
2008,10,13,22,07,9.50
2008,10,13,22,08,9.40
2008,10,13,22,09,9.30
2008,10,13,22,10,9.20
2008,10,13,22,11,9.20
2008,10,13,22,12,9.10
2008,10,13,22,13,9.00
2008,10,13,22,14,8.90
2008,10,13,22,15,8.90
2008,10,13,22,16,8.80
2008,10,13,22,17,8.80
2008,10,13,22,18,8.80
2008,10,13,22,19,8.80
2008,10,13,22,20,8.70
2008,10,13,22,21,8.70
2008,10,13,22,22,8.70
2008,10,13,22,23,8.70
2008,10,13,22,24,8.60
2008,10,13,22,25,8.60
2008,10,13,22,26,8.60
2008,10,13,22,27,8.60
2008,10,13,22,28,8.60
2008,10,13,22,29,8.60
2008,10,13,22,30,8.50
2008,10,13,22,31,8.50
2008,10,13,22,32,8.50
2008,10,13,22,33,8.50
2008,10,13,22,34,8.50
2008,10,13,22,35,8.40
2008,10,13,22,36,8.40
2008,10,13,22,37,8.40
2008,10,13,22,38,8.40
2008,10,13,22,39,8.40
2008,10,13,22,40,8.40
2008,10,13,22,41,8.40
2008,10,13,22,42,8.40
2008,10,13,22,43,8.30
2008,10,13,22,44,8.30
2008,10,13,22,45,8.30
2008,10,13,22,46,8.30
2008,10,13,22,47,8.30
2008,10,13,22,48,8.30
2008,10,13,22,49,8.30
2008,10,13,22,50,8.20
2008,10,13,22,51,8.20
2008,10,13,22,52,8.20
2008,10,13,22,53,8.20
2008,10,13,22,54,8.20
2008,10,13,22,55,8.20
2008,10,13,22,56,8.20
2008,10,13,22,57,8.20
2008,10,13,22,58,8.10
2008,10,13,22,59,8.10
2008,10,13,23,00,8.10
2008,10,13,23,01,8.10
2008,10,13,23,02,8.10
2008,10,13,23,03,8.10
2008,10,13,23,04,8.00
2008,10,13,23,05,8.00
2008,10,13,23,06,8.00
2008,10,13,23,07,8.00
2008,10,13,23,08,7.90
2008,10,13,23,09,7.90
2008,10,13,23,10,7.90
2008,10,13,23,11,7.90
2008,10,13,23,12,7.90
2008,10,13,23,13,7.80
2008,10,13,23,14,7.80
2008,10,13,23,15,7.80
2008,10,13,23,16,7.80
2008,10,13,23,17,7.80
2008,10,13,23,18,7.80
2008,10,13,23,19,7.80
2008,10,13,23,20,7.70
2008,10,13,23,21,7.70
2008,10,13,23,22,7.70
2008,10,13,23,23,7.70
2008,10,13,23,24,7.70
2008,10,13,23,25,7.70
2008,10,13,23,26,7.60
2008,10,13,23,27,7.60
2008,10,13,23,28,7.60
2008,10,13,23,29,7.60
2008,10,13,23,30,7.60
2008,10,13,23,31,7.60
2008,10,13,23,32,7.60
2008,10,13,23,33,7.60
2008,10,13,23,34,7.50
2008,10,13,23,35,7.50
2008,10,13,23,36,7.50
2008,10,13,23,37,7.50
2008,10,13,23,38,7.40
2008,10,13,23,39,7.40
2008,10,13,23,40,7.40
2008,10,13,23,41,7.40
2008,10,13,23,42,7.30
2008,10,13,23,43,7.30
2008,10,13,23,44,7.30
2008,10,13,23,45,7.30
2008,10,13,23,46,7.30
2008,10,13,23,47,7.30
2008,10,13,23,48,7.30
2008,10,13,23,49,7.20
2008,10,13,23,50,7.20
2008,10,13,23,51,7.20
2008,10,13,23,52,7.20
2008,10,13,23,53,7.20
2008,10,13,23,54,7.20
2008,10,13,23,55,7.20
2008,10,13,23,56,7.20
2008,10,13,23,57,7.20
2008,10,13,23,58,7.20
2008,10,13,23,59,7.20
